Flag for Tonga Weather past 2 weeks in Nukualofa, Tonga

Now
75 °F

Passing clouds.


Feels Like: 75 °F
Forecast: 75 / 82 °F
Wind: No wind

Location: Fua'Amotu

Current Time: Apr 20, 2015 at 12:25:07 AM

Latest Report: Apr 20, 2015 at 12:00 AM


Visibility: N/A

Pressure: 30.04 "Hg

Humidity: 83%

Dew point: 70 °F

Location of NukualofaLocation

Historic Weather in Nukualofa — Graph

°F

Nukualofa temperature yesterday

Maximum temperature yesterday: 82 °F (at 12:00 PM)
Minimum temperature yesterday: 73 °F (at 4:00 AM)
Average temperature yesterday: 77 °F

Past Weeks' High & Low Weather Summary

 TemperatureHumidityPressure
High86 °F (Apr 13, 2:00 PM)100% (Apr 12, 7:00 AM)30.09 "Hg (Apr 12, 7:00 AM)
Low66 °F (Apr 11, 3:00 AM)45% (Apr 11, 2:00 PM)27.16 "Hg (Apr 10, 12:00 PM)
Average77 °F76%29.97 "Hg
* Reported Apr 4 11:00 PM — Apr 19 11:00 PM, Nukualofa, Weather by CustomWeather, © 2015

Note: Actual official high and low records may vary slightly from our data, if they occured in-between our weather recording intervals... More about our weather records

Advertising

Nukualofa weather history for previous 24 hours

 ConditionsComfort  
Time TempWeatherWind HumidityBarometerVisibility
11:00 PM
Sun, Apr 19
75 °FPassing clouds.No wind83%30.04 "HgN/A
10:00 PM75 °FPassing clouds.7 mph83%30.04 "HgN/A
9:00 PM77 °FPassing clouds.8 mph79%30.04 "HgN/A
8:00 PM75 °FPassing clouds.6 mph83%30.04 "HgN/A
7:00 PM77 °FPassing clouds.No wind79%30.01 "HgN/A
6:00 PM77 °FPassing clouds.12 mph79%30.01 "HgN/A
5:00 PM79 °FPartly sunny.9 mph84%29.98 "HgN/A
4:00 PM79 °FPartly sunny.9 mph84%29.98 "HgN/A
3:00 PM79 °FPartly sunny.9 mph84%29.98 "HgN/A
2:00 PM81 °FPartly sunny.10 mph79%30.01 "HgN/A
1:00 PM81 °FPartly sunny.9 mph79%30.01 "HgN/A
12:00 PM82 °FPartly sunny.12 mph70%30.04 "HgN/A
11:00 AM81 °FScattered clouds.12 mph74%30.04 "HgN/A
10:00 AM81 °FScattered clouds.8 mph74%30.04 "HgN/A
9:00 AM79 °FBroken clouds.6 mph79%30.04 "HgN/A
8:00 AM77 °FBroken clouds.3 mph79%30.04 "HgN/A
7:00 AM75 °FBroken clouds.2 mph83%30.01 "HgN/A
6:00 AM75 °FPartly sunny.No wind83%30.01 "HgN/A
5:00 AM73 °FPassing clouds.8 mph89%30.01 "HgN/A
4:00 AM73 °FPassing clouds.3 mph89%30.01 "HgN/A
3:00 AM75 °FSprinkles. Partly cloudy.10 mph83%30.01 "HgN/A
2:00 AM75 °FPassing clouds.No wind78%30.04 "HgN/A
1:00 AM75 °FSprinkles. Passing clouds.10 mph83%30.07 "HgN/A
12:00 AM75 °FPassing clouds.7 mph83%30.07 "HgN/A
Weather by CustomWeather, © 2015

See weather overviewHow to use our weather pages